Location: ?????
(32.7281°N, 34.9563°E)
Time: 17:55:56
(UTC+00:00)

ATLAS 2AS CENTAUR R/B - Pass Details

Date: 29 October 2020
Orbit: 939 x 1273 km, 63.7° (Epoch: 23 November)

Event Time Altitude Azimuth Distance (km) Brightness Sun altitude
Rises 16:30:53 0° 341° (NNW) 4,107 6.0 -21.4°
Reaches altitude 10° 16:34:39 10° 357° (N) 3,083 5.1 -22.1°
Enters shadow 16:38:50 20° 32° (NNE) 2,372 4.2 -23.0°
